Location: Newark
(38.6492°N, 88.9193°W)
Time: 05:41:01
(UTC+00:00)

ISS - Visible Passes

Search period start: 14 November 2019 00:00
Search period end: 24 November 2019 00:00
Orbit: 412 x 421 km, 51.6° (Epoch: 14 November)

Date Brightness Start Highest point End Pass type
(mag) Time Alt. Az. Time Alt. Az. Time Alt. Az.
14 Nov -1.0 10:14:24 17° SE 10:14:24 17° SE 10:15:14 10° SE visible
15 Nov -1.3 11:01:33 12° SSW 11:01:33 12° SSW 11:02:05 10° S visible
20 Nov -2.0 00:25:03 10° SSW 00:26:45 23° S 00:26:45 23° S visible
20 Nov -1.9 23:37:28 10° S 23:39:45 17° SE 23:40:43 16° ESE visible
21 Nov -0.6 01:12:58 10° WSW 01:13:38 15° WSW 01:13:38 15° WSW visible
22 Nov -3.7 00:24:24 10° SW 00:27:30 74° W 00:27:30 74° W visible
22 Nov -3.5 23:36:03 10° SW 23:39:19 53° SE 23:41:16 21° ENE visible
23 Nov -0.5 01:13:35 10° WNW 01:14:11 13° WNW 01:14:11 13° WNW visible
